This is the latest recevied weather packets stored in our database for station/object KF6FPU-15. If no packets are shown the sender has not sent any weather packets the latest 10 day(s).
| Time | Temp. | Humidity | Pressure | Rain* | Wind** | Luminosity | Snow |
|---|---|---|---|---|---|---|---|
| 1777821708 | 23.89° C | 19% | 1011.9 hPa | - | - | - | - |
| 1777821108 | 23.89° C | 19% | 1011.8 hPa | - | - | - | - |
| 1777820508 | 24.44° C | 19% | 1011.7 hPa | - | - | - | - |
| 1777819908 | 23.89° C | 19% | 1011.7 hPa | - | - | - | - |
| 1777819308 | 23.89° C | 19% | 1011.6 hPa | - | - | - | - |
| 1777818708 | 25° C | 19% | 1011.4 hPa | - | - | - | - |
| 1777817508 | 24.44° C | 19% | 1011.1 hPa | - | - | - | - |
| 1777816908 | 25° C | 19% | 1011 hPa | - | - | - | - |
| 1777816308 | 24.44° C | 19% | 1010.9 hPa | - | - | - | - |
| 1777815708 | 23.89° C | 19% | 1010.7 hPa | - | - | - | - |
| 1777815108 | 24.44° C | 19% | 1010.6 hPa | - | - | - | - |
| 1777814508 | 24.44° C | 19% | 1010.5 hPa | - | - | - | - |
| 1777813908 | 24.44° C | 19% | 1010.3 hPa | - | - | - | - |
| 1777813308 | 25° C | 19% | 1010.2 hPa | - | - | - | - |
| 1777812708 | 24.44° C | 19% | 1010.2 hPa | - | - | - | - |
| 1777812108 | 24.44° C | 19% | 1010.2 hPa | - | - | - | - |
| 1777810908 | 23.89° C | 19% | 1010.2 hPa | - | - | - | - |
| 1777810308 | 25° C | 19% | 1010.1 hPa | - | - | - | - |
| 1777809708 | 24.44° C | 19% | 1010.1 hPa | - | - | - | - |
| 1777809108 | 23.89° C | 19% | 1010.2 hPa | - | - | - | - |
| 1777808508 | 24.44° C | 19% | 1010.2 hPa | - | - | - | - |
| 1777807908 | 24.44° C | 19% | 1010.1 hPa | - | - | - | - |
| 1777807308 | 24.44° C | 19% | 1010 hPa | - | - | - | - |
| 1777806708 | 24.44° C | 19% | 1010 hPa | - | - | - | - |
| 1777806108 | 24.44° C | 19% | 1010.1 hPa | - | - | - | - |
* Rain since midnight (hover to see other rain measurements)
** Current wind speed in m/s (hover to see current wind gust speed)